Location: Christchurch
(43.5330°S, 172.6330°E)
Time: 04:29:33
(UTC+13:00)

Cosmos 1862 Rocket - Pass Details

Date: 24 January 2019
Orbit: 603 x 635 km, 82.5° (Epoch: 20 October)

Event Time Altitude Azimuth Distance (km) Brightness Sun altitude
Exits shadow 23:23:43 36° 80° (E) 992 4.2 -19.7°
Maximum altitude 23:23:59 37° 89° (E) 986 4.3 -19.8°
Drops below altitude 10° 23:28:04 10° 155° (SSE) 2,010 6.6 -20.2°
Sets 23:30:26 0° 163° (SSE) 2,920 7.6 -20.4°
